Location: Omaha
(41.2590°N, 95.9380°W)
Time: 00:55:57
(UTC-05:00)

Tiangong 2 - Pass Details

Date: 13 October 2017
Orbit: 388 x 392 km, 42.8° (Epoch: 17 October)

Event Time Altitude Azimuth Distance (km) Brightness Sun altitude
Exits shadow 04:53:32 11° 80° (E) 1,351 4.7 -30.6°
Drops below altitude 10° 04:53:36 11° 80° (E) 1,381 4.7 -30.5°
Sets 04:55:48 0° 76° (ENE) 2,279 6.2 -30.2°
